Volver al catálogo

STARLINK-38251

ActivoComunicacionesSSO
NORAD 100229·PAYLOAD·🇺🇸 United States

Lanzado Aug 4, 2026 desde Vandenberg Space Force Base

Loading…

Próximos Pases (próximas 24 horas)

TLE

ActualizadoSource: Space-Track

Época: Sep 14, 2026, 15:30 UTC

1 A0229U 26177S   26257.64618750 -.00089325  00000-0 -16529-2 0  9999
2 A0229  97.2836 308.5315 0001940  60.5930 299.5515 15.49300188  7532

Sigue STARLINK-38251 en tiempo real con AllMySat

Download on the App Store